Location: Unspecified
(40.7945°N, 111.1337°W)
Time: 12:48:38
(UTC-06:00)

Courier 1B Rocket - Visible Passes

Search period start: 16 June 2019 00:00
Search period end: 26 June 2019 00:00
Orbit: 920 x 1202 km, 28.2° (Epoch: 15 June)

Date Brightness Start Highest point End Pass type
(mag) Time Alt. Az. Time Alt. Az. Time Alt. Az.
20 Jun 7.0 05:03:45 10° S 05:06:34 13° SSE 05:09:19 10° SE visible
22 Jun 6.7 04:53:09 10° SSW 04:57:31 18° SSE 05:01:44 10° ESE visible
23 Jun 6.8 03:55:17 13° S 03:56:44 14° SSE 04:00:08 10° SE visible
24 Jun 6.5 04:44:04 13° SSW 04:48:30 22° SSE 04:53:31 10° ESE visible
25 Jun 6.6 03:46:32 18° S 03:47:40 19° SSE 03:52:20 10° ESE visible
